Location: Fisheating Creek Campgrounds
(26.9333°N, 81.3167°W)
Time: 02:50:51
(UTC-04:00)

Cosmos 2221 Rocket - Visible Passes

Search period start: 01 November 2014 00:00
Search period end: 10 November 2014 23:00
Orbit: 621 x 651 km, 82.5° (Epoch: 31 October)

Date Brightness Start Highest point End Pass type
(mag) Time Alt. Az. Time Alt. Az. Time Alt. Az.
01 Nov 5.4 05:10:29 29° E 05:10:29 29° E 05:13:38 10° SE visible
01 Nov 5.3 06:48:07 14° W 06:48:07 14° W 06:49:53 10° WSW visible
01 Nov 6.6 19:11:34 10° WSW 19:14:04 15° WNW 19:16:33 10° NW visible
02 Nov 5.2 04:34:47 26° SSE 04:34:47 26° SSE 04:36:47 10° S visible
03 Nov 5.9 04:58:49 11° SSW 04:58:49 11° SSW 04:59:02 10° SSW visible
